Henderson, NV

9:46 AM PST on February 23, 2017 (GMT -0800)
Henderson

Weather History for KHND - October, 2011

Change the Weather History Date:

Thursday, October 27, 2011

  Actual Average (KLAS) Record (KLAS)
Temperature  
Mean Temperature 56 °F -  
Max Temperature 65 °F 74 °F 92 °F (1937)
Min Temperature 46 °F 50 °F 35 °F (1939)
Degree Days  
Heating Degree Days 10    
Growing Degree Days 6 (Base 50)    
Moisture  
Dew Point 6 °F    
Average Humidity 15    
Maximum Humidity 22    
Minimum Humidity 8    
Precipitation  
Precipitation 0.00 in - - ()
Sea Level Pressure  
Sea Level Pressure 30.07 in    
Wind  
Wind Speed 10 mph (NE)    
Max Wind Speed 16 mph    
Max Gust Speed -    
Visibility 10 miles    
Events      
Averages and records for this station are not official NWS values.
T = Trace of Precipitation, MM = Missing Value Source: NWS Daily Summary

Daily Weather History Graph

Daily Weather History Graph

Search for Another Location

Airport or City:

Trip Planner

Search our weather history database for the weather conditions in past years. The results will help you decide how hot, cold, wet, or windy it might be!

Date:

Astronomy

Oct. 27, 2011 Rise Set
Actual Time 6:58 AM PDT 5:50 PM PDT
Civil Twilight 6:31 AM PDT 6:16 PM PDT
Nautical Twilight 6:01 AM PDT 6:46 PM PDT
Astronomical Twilight 5:31 AM PDT 7:16 PM PDT
Moon 8:02 AM PDT (10/27) 6:27 PM PDT (10/27)
Length of Visible Light 11h 44m
Length of Day
10h 52m
New Moon, 1% of the Moon is Illuminated
Oct 27
New Moon
Nov 2
First Quarter
Nov 10
Full
Nov 18
Last Quarter
Nov 24
New

Hourly Weather History & Observations

Time (PDT) Temp. Dew Point Humidity Pressure Visibility Wind Dir Wind Speed Gust Speed Precip Events Conditions
12:56 AM 52.9 °F 1.0 °F 12% 30.06 in 10.0 mi NNE 16.1 mph - N/A   Clear
1:56 AM 50.9 °F 3.0 °F 14% 30.07 in 10.0 mi NNE 11.5 mph - N/A   Clear
2:56 AM 50.0 °F 5.0 °F 16% 30.06 in 10.0 mi North 13.8 mph - N/A   Clear
3:56 AM 46.9 °F 9.1 °F 22% 30.07 in 10.0 mi East 4.6 mph - N/A   Clear
4:56 AM 46.9 °F 7.2 °F 20% 30.08 in 10.0 mi NNE 9.2 mph - N/A   Clear
5:56 AM 46.9 °F 7.2 °F 20% 30.09 in 10.0 mi NE 6.9 mph - N/A   Clear
7:56 AM 48.9 °F 8.1 °F 19% 30.12 in 10.0 mi NNE 6.9 mph - N/A   Clear
8:56 AM 52.9 °F 9.1 °F 17% 30.12 in 10.0 mi NE 5.8 mph - N/A   Clear
10:56 AM 57.9 °F 5.0 °F 12% 30.11 in 10.0 mi NNE 10.4 mph - N/A   Clear
11:56 AM 59.9 °F 3.0 °F 10% 30.08 in 10.0 mi North 8.1 mph - N/A   Clear
12:56 PM 61.9 °F 2.1 °F 9% 30.04 in 10.0 mi Variable 6.9 mph - N/A   Clear
1:56 PM 63.9 °F 5.0 °F 10% 30.02 in 10.0 mi NNE 10.4 mph - N/A   Clear
2:56 PM 63.9 °F 7.2 °F 11% 30.00 in 10.0 mi Calm Calm - N/A   Clear
3:56 PM 65.8 °F 2.1 °F 8% 30.01 in 10.0 mi North 8.1 mph - N/A   Clear
4:56 PM 64.4 °F 3.2 °F 9% 30.09 in 10.0 mi North 8.1 mph - N/A   Clear
5:56 PM 61.9 °F 6.1 °F 11% 30.01 in 10.0 mi NNE 4.6 mph - N/A   Clear
7:56 PM 53.6 °F 10.4 °F 18% 30.11 in 10.0 mi SSE 5.8 mph - N/A   Clear
8:56 PM 52.0 °F 12.0 °F 20% 30.05 in 10.0 mi South 6.9 mph - N/A   Clear
9:56 PM 50.0 °F 12.0 °F 22% 30.06 in 10.0 mi SSE 6.9 mph - N/A   Clear
11:56 PM 48.9 °F 10.0 °F 21% 30.06 in 10.0 mi SSE 8.1 mph - N/A   Clear